[[{"header":{"parameterUnit":"m.s-1","parameterCategory":1,"la1":30.2991,"la2":30.254,"lo1":-89.0895,"lo2":-89.0444,"dy":0.0017,"dx":0.0017,"nx":28,"ny":28,"refTime":"2025-03-27T09:00:00:Z","depth":0,"parameterNumber":2,"parameterNumberName":"U-component_of_WINDS"},"data":[0,0,0,0,0,0,0,0,0,0,0,0,0,0,0,0,0,0,0,0,0,0,0,0,0,0,0,0,0,0,0,0,0,0,0,0,0,0,0,0,0,0,0,0,0,0,0,0,0,0,0,0,0,0,0,0,0,0,-4.8363,-4.8364,0,-4.841,-4.8411,-4.8411,-4.834,-4.8337,-4.8335,-4.8332,-4.8378,-4.8381,-4.8384,0,0,0,0,0,0,0,0,0,0,0,0,0,-4.8211,-4.8214,-4.8363,-4.8364,-4.8364,-4.841,-4.8411,-4.8411,-4.834,-4.8337,-4.8334,-4.8331,-4.8376,-4.8381,-4.8385,0,0,0,0,0,0,0,0,0,0,0,0,0,-4.8269,-4.8215,-4.8363,-4.8335,-4.8332,-4.841,-4.8411,-4.8411,-4.8341,-4.8337,-4.8333,-4.833,-4.8375,-4.838,-4.8385,-4.8492,0,0,-4.8401,-4.8404,0,0,0,0,0,0,0,0,-4.8266,-4.8275,-4.8338,-4.8337,-4.8334,-4.8365,-4.8373,-4.8438,-4.8342,-4.8337,-4.8332,-4.8328,-4.8376,-4.8381,-4.8398,-4.8494,-4.8496,-4.8402,-4.8405,-4.8407,-4.8409,0,0,0,0,0,0,0,-4.8262,-4.8273,-4.8382,-4.8339,-4.8337,-4.8319,-4.8323,-4.8385,-4.8377,-4.8338,-4.8332,-4.8339,-4.8375,-4.8393,-4.8399,-4.8497,-4.8402,-4.8406,-4.841,-4.8412,-4.8683,-4.8687,0,0,0,0,0,0,-4.8262,-4.827,-4.838,-4.8383,-4.8291,-4.8325,-4.8329,-4.8359,-4.8376,-4.8375,-4.8342,-4.8336,-4.8386,-4.8393,-4.84,-4.8525,-4.8407,-4.8412,-4.8415,-4.8679,-4.8684,-4.8689,0,0,0,0,0,0,-4.8259,-4.8272,-4.8378,-4.8325,-4.8337,-4.8331,-4.8365,-4.8362,-4.838,-4.838,-4.8378,-4.8363,-4.8383,-4.8392,-4.847,-4.8526,-4.8415,-4.8419,-4.8675,-4.8681,-4.8686,-4.8778,0,0,0,0,0,0,-4.8255,-4.8272,-4.8312,-4.8327,-4.834,-4.8448,-4.8369,-4.8366,-4.839,-4.8382,-4.8399,-4.8398,-4.8381,-4.8463,-4.8475,-4.8531,-4.8424,-4.8669,-4.8677,-4.8685,-4.8769,-4.8786,-4.88,0,0,0,0,0,-4.825,-4.8336,-4.8315,-4.8329,-4.8391,-4.8451,-4.8459,-4.8439,-4.8395,-4.8435,-4.8435,-4.8397,-4.8519,-4.8471,-4.8485,-4.8543,-4.8666,-4.8675,-4.8684,-4.8763,-4.8783,-4.88,0,0,0,0,0,0,-4.8326,-4.8337,-4.8314,-4.8407,-4.8429,-4.8439,-4.8489,-4.8461,-4.8495,-4.8486,-4.8459,-4.8463,-4.8546,-4.8553,-4.85,-4.8648,-4.8585,-4.8597,-4.864,-4.8659,-4.8674,-4.8669,-4.8428,0,0,0,0,0,-4.8355,-4.8404,-4.841,-4.8491,-4.8504,-4.8495,-4.8521,-4.8504,-4.8525,-4.8534,-4.8539,-4.8561,-4.8603,-4.8632,-4.8671,-4.8771,-4.8773,-4.8818,-4.8834,-4.8846,-4.8856,-4.8909,-4.8929,-4.8719,-4.8719,-4.8718,0,0,-4.8412,-4.8424,-4.8456,-4.8507,-4.8522,-4.8573,-4.8503,-4.8559,-4.8596,-4.8542,-4.8615,-4.862,-4.8643,-4.8732,-4.8771,-4.874,-4.8916,-4.8858,-4.8868,-4.8871,-4.8921,-4.8941,-4.8958,-4.8725,-4.8724,-4.8723,0,0,-4.8543,-4.8558,-4.8627,-4.8644,-4.8668,-4.8663,-4.868,-4.8695,-4.8697,-4.877,-4.873,-4.8774,-4.8849,-4.8866,-4.8885,-4.9026,-4.8992,-4.904,-4.9118,-4.917,-4.9187,-4.9201,-4.925,-4.9268,-4.905,-4.9051,-4.9051,0,-4.8611,-4.8686,-4.8666,-4.8725,-4.8749,-4.8704,-4.8773,-4.8791,-4.8827,-4.8844,-4.8809,-4.8902,-4.8914,-4.9006,-4.9041,-4.9058,-4.9076,-4.9036,-4.9186,-4.9201,-4.9214,-4.926,-4.9278,-4.9056,-4.9055,-4.9055,-4.9054,0,-4.8768,-4.8821,-4.8874,-4.8911,-4.8941,-4.9005,-4.8994,-4.9027,-4.9009,-4.9007,-4.9082,-4.9096,-4.9137,-4.9159,-4.9141,-4.9249,-4.9228,-4.9191,-4.9126,-4.924,-4.9282,-4.93,-4.9064,-4.9062,-4.906,-4.9059,0,0,-4.8944,-4.8972,-4.8991,-4.9008,-4.9033,-4.9073,-4.9136,-4.9178,-4.9205,-4.9233,-4.9284,-4.935,-4.9315,-4.9337,-4.9321,-4.9367,-4.9476,-4.9323,-4.9323,-4.9349,-4.9595,-4.9621,-4.9642,-4.9455,-4.9458,-4.9461,-4.9592,0,-4.9073,-4.9182,-4.9167,-4.9271,-4.9319,-4.9279,-4.9334,-4.9355,-4.9356,-4.9396,-4.9397,-4.9443,-4.9395,-4.9408,-4.9452,-4.9453,-4.9524,-4.9444,-4.9501,-4.9503,-4.9493,-4.9664,-4.9692,-4.9815,-4.9609,-4.9612,-4.9614,0,-4.9237,-4.9271,-4.9381,-4.9399,-4.9419,-4.9468,-4.9505,-4.9546,-4.9569,-4.9567,-4.9592,-4.9569,-4.9631,-4.9569,-4.9654,-4.96,-4.9623,-4.9628,-4.9632,-4.9634,-4.9563,-4.9669,-4.9854,-4.9872,-4.964,-4.9638,-4.9636,0,-4.9352,-4.9426,-4.9501,-4.9517,-4.954,-4.9576,-4.9588,-4.9608,-4.9634,-4.9668,-4.9684,-4.9724,-4.9746,-4.9777,-4.9765,-4.9721,-4.9852,-4.9789,-4.985,-4.9851,-4.9877,-4.9875,-5.0066,-4.9897,-4.9897,-4.9896,-4.9896,0,-4.9495,-4.9563,-4.9553,-4.9599,-4.9674,-4.9657,-4.9732,-4.9738,-4.9757,-4.9803,-4.9772,-4.9816,-4.9798,-4.9841,-4.9832,-4.9904,-4.9914,-4.9913,-4.9909,-4.9914,-4.9914,-4.9926,-4.9916,-4.9901,-4.99,-4.9899,-4.9898,0,-4.9635,-4.9631,-4.971,-4.9727,-4.9733,-4.9788,-4.9802,-4.9845,-4.9845,-4.9904,-4.9916,-4.9916,-4.9964,-4.9957,-5.0011,-5.0005,-5.0093,-5.0081,-5.0085,-5.0081,-5.0143,-5.0136,-5.0346,-5.0372,-5.0189,-5.019,-5.0192,0,-4.9725,-4.9777,-4.98,-4.983,-4.9844,-4.9891,-4.9919,-4.9905,-4.9935,-4.9967,-5.0006,-5.0052,-5.0088,-5.0168,-5.0172,-5.0213,-5.02,-5.0271,-5.0205,-5.0209,-5.0198,-5.0194,-5.0199,-5.0282,-5.0284,-5.0286,-5.0288,0,-4.9885,-4.9881,-4.9922,-4.9964,-4.9998,-5.0029,-5.0057,-5.0083,-5.0072,-5.0107,-5.0157,-5.0186,-5.0242,-5.0288,-5.0327,-5.0338,-5.0311,-5.0309,-5.0325,-5.0329,-5.0328,-5.0327,-5.0118,-5.0303,-5.0301,-5.03,-5.0299,-5.0299,-5.0001,-5.0045,-5.0069,-5.0116,-5.0137,-5.0164,-5.0205,-5.0211,-5.0253,-5.0298,-5.0288,-5.0345,-5.0368,-5.0418,-5.0434,-5.0478,-5.0452,-5.0475,-5.0481,-5.0486,-5.0493,-5.0325,-5.0486,-5.0485,-5.0485,-5.0484,-5.0484,0,-5.0158,-5.0172,-5.0216,-5.0257,-5.0294,-5.0268,-5.0298,-5.0331,-5.0381,-5.0406,-5.0443,-5.0501,-5.0547,-5.0556,-5.0599,-5.0632,-5.0621,-5.0644,-5.0639,-5.0642,-5.0515,-5.0496,-5.0652,-5.0652,-5.0652,-5.0652,-5.0652,-5.0652,-5.0243,-5.0316,-5.0315,-5.0398,-5.0412,-5.0468,-5.0487,-5.0513,-5.0533,-5.0599,-5.0637,-5.0643,-5.0662,-5.0706,-5.0747,-5.0748,-5.0764,-5.0792,-5.0788,-5.0668,-5.0651,-5.0635,-5.0617,-5.0796,-5.0796,-5.0912,-5.0913,-5.0913]},{"header":{"parameterUnit":"m.s-1","parameterCategory":1,"la1":30.2991,"la2":30.254,"lo1":-89.0895,"lo2":-89.0444,"dy":0.0017,"dx":0.0017,"nx":28,"ny":28,"refTime":"2025-03-27T09:00:00:Z","depth":0,"parameterNumber":3,"parameterNumberName":"V-component_of_WINDS"},"data":[0,0,0,0,0,0,0,0,0,0,0,0,0,0,0,0,0,0,0,0,0,0,0,0,0,0,0,0,0,0,0,0,0,0,0,0,0,0,0,0,0,0,0,0,0,0,0,0,0,0,0,0,0,0,0,0,0,0,1.8734,1.8735,0,1.8817,1.8818,1.8819,1.8864,1.8864,1.8864,1.8864,1.8945,1.8947,1.8949,0,0,0,0,0,0,0,0,0,0,0,0,0,1.8612,1.8614,1.8734,1.8735,1.8736,1.8817,1.8818,1.8819,1.8864,1.8864,1.8864,1.8864,1.8944,1.8946,1.8949,0,0,0,0,0,0,0,0,0,0,0,0,0,1.8677,1.8615,1.8734,1.8768,1.8772,1.8817,1.8818,1.8819,1.8864,1.8864,1.8864,1.8864,1.8943,1.8946,1.8949,1.8964,0,0,1.8958,1.896,0,0,0,0,0,0,0,0,1.8673,1.8681,1.8762,1.8766,1.877,1.883,1.8805,1.8868,1.8864,1.8829,1.8864,1.8864,1.8906,1.8912,1.8927,1.8968,1.8972,1.8959,1.8961,1.8962,1.8963,0,0,0,0,0,0,0,1.8668,1.8678,1.8767,1.8763,1.8768,1.8779,1.8788,1.8817,1.8865,1.8832,1.8835,1.8845,1.8908,1.8924,1.8929,1.8973,1.8959,1.8961,1.8963,1.8964,1.9033,1.9033,0,0,0,0,0,0,1.8659,1.8674,1.8764,1.8769,1.8721,1.8781,1.8791,1.8811,1.8865,1.8874,1.8845,1.8847,1.8919,1.8926,1.8932,1.8956,1.8962,1.8965,1.8966,1.9033,1.9033,1.9033,0,0,0,0,0,0,1.8656,1.8666,1.8761,1.8723,1.8735,1.8783,1.8804,1.8812,1.8828,1.8875,1.8883,1.8852,1.8919,1.8928,1.8957,1.8959,1.8966,1.8969,1.9033,1.9033,1.9033,1.9001,0,0,0,0,0,0,1.8652,1.8665,1.8672,1.8722,1.8737,1.8784,1.8804,1.8814,1.8834,1.8837,1.8884,1.8892,1.892,1.8952,1.896,1.8963,1.8971,1.9033,1.9033,1.9033,1.9002,1.9,1.8998,0,0,0,0,0,1.8648,1.8658,1.8672,1.8683,1.8747,1.8784,1.8793,1.8826,1.8834,1.8841,1.8871,1.889,1.8957,1.8955,1.8964,1.8968,1.9033,1.9033,1.9033,1.9003,1.9,1.8998,0,0,0,0,0,0,1.8604,1.8665,1.8681,1.8709,1.8741,1.8792,1.8802,1.8822,1.8852,1.8854,1.8893,1.8903,1.8929,1.8951,1.8947,1.8987,1.8997,1.8999,1.8971,1.8969,1.8967,1.8961,1.8974,0,0,0,0,0,1.8599,1.8625,1.8676,1.8695,1.8711,1.8754,1.8771,1.8795,1.8829,1.8843,1.8875,1.8907,1.8936,1.8954,1.8982,1.9005,1.9017,1.9013,1.9011,1.9009,1.901,1.9026,1.9025,1.9033,1.9033,1.9033,0,0,1.8585,1.8622,1.8636,1.8688,1.8716,1.8742,1.8765,1.8791,1.8811,1.8846,1.8877,1.8901,1.894,1.8966,1.898,1.8986,1.9011,1.9009,1.9007,1.9009,1.9026,1.9025,1.9024,1.9032,1.9032,1.9032,0,0,1.8576,1.8606,1.8626,1.8655,1.8698,1.8726,1.8731,1.878,1.8798,1.8829,1.8857,1.8881,1.8929,1.8956,1.8976,1.8979,1.8998,1.8987,1.8976,1.8991,1.899,1.899,1.8992,1.8993,1.8988,1.8988,1.8988,0,1.8554,1.8596,1.8633,1.8659,1.8682,1.8717,1.8738,1.8763,1.8813,1.8827,1.8834,1.8897,1.8925,1.8959,1.896,1.8975,1.8982,1.8982,1.8988,1.8988,1.8988,1.8991,1.8991,1.8986,1.8986,1.8986,1.8987,0,1.8568,1.8596,1.8607,1.8657,1.868,1.8703,1.8744,1.8763,1.8785,1.8812,1.8844,1.888,1.8917,1.8927,1.8947,1.8965,1.8968,1.898,1.8992,1.8985,1.8988,1.8989,1.8984,1.8984,1.8985,1.8985,0,0,1.8532,1.8604,1.8607,1.8631,1.8683,1.8705,1.873,1.8769,1.8785,1.8818,1.884,1.8881,1.8894,1.8917,1.894,1.8953,1.8955,1.8965,1.8967,1.8963,1.8978,1.8969,1.8969,1.8969,1.8969,1.8969,1.8975,0,1.853,1.8578,1.8614,1.8648,1.8676,1.8711,1.8733,1.8766,1.8793,1.882,1.8849,1.8878,1.8893,1.8907,1.8921,1.8952,1.8959,1.8952,1.8989,1.899,1.8979,1.8971,1.8961,1.8965,1.8977,1.8977,1.8977,0,1.8534,1.8569,1.8607,1.8658,1.867,1.869,1.8729,1.8754,1.8793,1.8812,1.8838,1.8864,1.8892,1.89,1.8939,1.8934,1.8951,1.8969,1.897,1.8975,1.8984,1.8976,1.8967,1.8968,1.8979,1.8979,1.8979,0,1.8506,1.8562,1.8593,1.8612,1.8671,1.8684,1.8709,1.8749,1.877,1.8804,1.8819,1.8854,1.8874,1.8901,1.8936,1.8939,1.8972,1.8983,1.8988,1.8987,1.8993,1.8992,1.8987,1.9003,1.9003,1.9003,1.9003,0,1.8501,1.8523,1.8581,1.86,1.8626,1.8666,1.869,1.8718,1.8753,1.8778,1.881,1.8832,1.8876,1.8903,1.893,1.8959,1.8967,1.8983,1.899,1.898,1.8979,1.8992,1.8993,1.9003,1.9003,1.9003,1.9003,0,1.8474,1.8514,1.8549,1.8604,1.8618,1.8635,1.8681,1.87,1.873,1.876,1.877,1.8815,1.885,1.8887,1.8932,1.8951,1.8978,1.8988,1.8966,1.897,1.8974,1.8973,1.8977,1.898,1.8993,1.8993,1.8993,0,1.8468,1.8486,1.8544,1.8563,1.8588,1.8619,1.8642,1.8683,1.8706,1.8753,1.8767,1.8804,1.8835,1.8888,1.8925,1.896,1.8971,1.897,1.8977,1.8967,1.8973,1.8972,1.8974,1.8968,1.8968,1.8968,1.8968,0,1.8455,1.8474,1.8507,1.8548,1.8575,1.8608,1.8642,1.8656,1.8704,1.8728,1.8764,1.8789,1.8837,1.8874,1.8914,1.8939,1.8961,1.8966,1.8969,1.896,1.8947,1.8955,1.8961,1.8965,1.8965,1.8966,1.8966,1.8966,1.8439,1.8458,1.8502,1.8538,1.8569,1.86,1.8622,1.8656,1.8687,1.8731,1.8753,1.8789,1.8829,1.8886,1.8911,1.894,1.8947,1.8951,1.8952,1.8953,1.8951,1.8942,1.8947,1.8947,1.8947,1.8947,1.8947,0,1.8428,1.8459,1.8492,1.854,1.8569,1.8589,1.8629,1.8651,1.8684,1.872,1.8751,1.8794,1.883,1.887,1.8909,1.8924,1.8935,1.8933,1.8932,1.8938,1.8942,1.8936,1.8923,1.8923,1.8923,1.8923,1.8923,1.8923,1.8426,1.8459,1.8484,1.8533,1.8564,1.8601,1.8622,1.8652,1.8682,1.8728,1.8759,1.8786,1.8824,1.8866,1.89,1.8911,1.8924,1.8919,1.8933,1.8936,1.8938,1.8939,1.8934,1.8921,1.8921,1.8927,1.8927,1.8927]}]]